User: anonymous   Login
Location: NJAA Observatory
(40.6819°N, 74.8979°W)
Time: 02:34:25
(UTC-04:00)
Language:

ALOS - Orbit

View from above orbital plane
View from above orbital plane
View from above satellite
View from above satellite

Ground track
Ground track

The orbit data is extracted from the following two-line orbital elements,

1 28931U 06002A   15091.89074218  .00001041  00000-0  21770-3 0  9992
2 28931 097.9430 144.3148 0001528 058.5497 301.5855 14.61759095489494
Epoch (UTC): 01 April 2015 21:22:40
Eccentricity: 0.0001528
inclination: 97.9430°
perigee height: 686 km
apogee height: 688 km
right ascension of ascending node: 144.3148°
argument of perigee: 58.5497°
revolutions per day: 14.61759095
mean anomaly at epoch: 301.5855°
orbit number at epoch: 48949

The dashed part of the orbit path shows where the satellite is in the earth's shadow,  

DLR